Time,TemperatureF,DewpointF,PressureIn,WindDirection,WindDirectionDegrees,WindSpeedMPH,WindSpeedGustMPH,Humidity,HourlyPrecipIn,Conditions,Clouds,dailyrainin,SoftwareType,DateUTC
2013-07-01 00:10:00,65.1,65.0,29.90,SE,129,0.0,1.0,100,0.00,,,0.30,weatherlink.com 1.10,2013-07-01 04:10:00,
2013-07-01 00:25:00,64.9,65.0,29.90,SE,129,0.0,0.0,100,0.00,,,0.30,weatherlink.com 1.10,2013-07-01 04:25:00,
2013-07-01 00:40:00,64.6,65.0,29.90,SE,129,0.0,0.0,100,0.00,,,0.30,weatherlink.com 1.10,2013-07-01 04:40:00,
2013-07-01 00:55:00,64.5,65.0,29.89,SE,129,0.0,0.0,100,0.00,,,0.30,weatherlink.com 1.10,2013-07-01 04:55:00,
2013-07-01 01:10:00,64.6,65.0,29.89,SE,129,0.0,0.0,100,0.00,,,0.30,weatherlink.com 1.10,2013-07-01 05:10:00,
2013-07-01 01:25:00,64.5,65.0,29.89,SE,129,0.0,0.0,100,0.00,,,0.30,weatherlink.com 1.10,2013-07-01 05:25:00,
2013-07-01 01:40:00,64.4,64.0,29.89,SE,129,0.0,0.0,100,0.00,,,0.30,weatherlink.com 1.10,2013-07-01 05:40:00,
2013-07-01 01:55:00,64.3,64.0,29.89,SE,129,0.0,2.0,100,0.00,,,0.30,weatherlink.com 1.10,2013-07-01 05:55:00,
2013-07-01 02:10:00,64.3,64.0,29.89,SE,129,0.0,1.0,100,0.00,,,0.00,weatherlink.com 1.10,2013-07-01 06:10:00,
2013-07-01 02:25:00,64.1,64.0,29.89,SE,129,1.0,1.0,100,0.00,,,0.00,weatherlink.com 1.10,2013-07-01 06:25:00,
2013-07-01 02:40:00,63.9,64.0,29.90,SE,129,0.0,1.0,100,0.00,,,0.00,weatherlink.com 1.10,2013-07-01 06:40:00,
2013-07-01 02:55:00,63.4,63.0,29.90,SE,129,0.0,0.0,100,0.00,,,0.00,weatherlink.com 1.10,2013-07-01 06:55:00,
2013-07-01 03:10:00,63.0,63.0,29.90,SE,129,0.0,1.0,100,0.00,,,0.00,weatherlink.com 1.10,2013-07-01 07:10:00,
2013-07-01 03:25:00,63.0,63.0,29.90,SE,129,0.0,1.0,100,0.00,,,0.00,weatherlink.com 1.10,2013-07-01 07:25:00,
2013-07-01 03:40:00,63.0,63.0,29.91,SE,129,0.0,1.0,100,0.00,,,0.00,weatherlink.com 1.10,2013-07-01 07:40:00,
2013-07-01 03:55:00,63.2,63.0,29.91,SE,129,0.0,0.0,100,0.00,,,0.00,weatherlink.com 1.10,2013-07-01 07:55:00,
2013-07-01 04:10:00,63.4,63.0,29.92,SE,129,0.0,1.0,100,0.00,,,0.00,weatherlink.com 1.10,2013-07-01 08:10:00,
2013-07-01 04:25:00,63.6,64.0,29.92,SE,129,0.0,1.0,100,0.00,,,0.00,weatherlink.com 1.10,2013-07-01 08:25:00,
2013-07-01 04:40:00,63.9,64.0,29.92,SE,129,1.0,1.0,100,0.00,,,0.00,weatherlink.com 1.10,2013-07-01 08:40:00,
2013-07-01 04:55:00,64.0,64.0,29.93,SE,129,0.0,0.0,100,0.00,,,0.00,weatherlink.com 1.10,2013-07-01 08:55:00,
2013-07-01 05:10:00,64.1,64.0,29.93,SE,129,0.0,0.0,100,0.00,,,0.00,weatherlink.com 1.10,2013-07-01 09:10:00,
2013-07-01 05:25:00,64.4,64.0,29.93,SE,129,0.0,0.0,100,0.00,,,0.00,weatherlink.com 1.10,2013-07-01 09:25:00,
2013-07-01 05:40:00,64.5,65.0,29.93,SE,138,0.0,1.0,100,0.00,,,0.00,weatherlink.com 1.10,2013-07-01 09:40:00,
2013-07-01 05:55:00,64.7,65.0,29.94,SE,138,0.0,0.0,100,0.00,,,0.00,weatherlink.com 1.10,2013-07-01 09:55:00,
2013-07-01 06:11:00,65.0,65.0,29.94,SE,138,0.0,0.0,100,0.00,,,0.00,weatherlink.com 1.10,2013-07-01 10:11:00,
2013-07-01 06:26:00,65.4,65.0,29.94,SE,138,0.0,0.0,100,0.00,,,0.00,weatherlink.com 1.10,2013-07-01 10:26:00,
2013-07-01 06:41:00,65.7,66.0,29.94,SE,138,0.0,0.0,100,0.00,,,0.00,weatherlink.com 1.10,2013-07-01 10:41:00,
2013-07-01 06:56:00,66.0,66.0,29.95,SE,139,0.0,0.0,100,0.00,,,0.00,weatherlink.com 1.10,2013-07-01 10:56:00,
2013-07-01 07:11:00,66.3,66.0,29.95,SE,138,0.0,1.0,100,0.00,,,0.00,weatherlink.com 1.10,2013-07-01 11:11:00,
2013-07-01 07:26:00,66.0,66.0,29.96,SSE,155,0.0,1.0,100,0.00,,,0.00,weatherlink.com 1.10,2013-07-01 11:26:00,
2013-07-01 07:41:00,65.9,66.0,29.96,SSE,155,0.0,0.0,100,0.00,,,0.00,weatherlink.com 1.10,2013-07-01 11:41:00,
2013-07-01 07:56:00,65.9,66.0,29.96,SSE,161,0.0,1.0,100,0.01,,,0.01,weatherlink.com 1.10,2013-07-01 11:56:00,
2013-07-01 08:11:00,66.2,66.0,29.96,SW,221,0.0,1.0,100,0.01,,,0.01,weatherlink.com 1.10,2013-07-01 12:11:00,
2013-07-01 08:26:00,66.7,67.0,29.96,SW,221,0.0,0.0,100,0.01,,,0.01,weatherlink.com 1.10,2013-07-01 12:26:00,
2013-07-01 08:41:00,67.3,67.0,29.96,SW,222,0.0,0.0,100,0.01,,,0.01,weatherlink.com 1.10,2013-07-01 12:41:00,
2013-07-01 08:56:00,67.9,68.0,29.97,SE,131,0.0,1.0,100,0.00,,,0.01,weatherlink.com 1.10,2013-07-01 12:56:00,
2013-07-01 09:11:00,68.6,68.0,29.97,SE,130,0.0,1.0,99,0.00,,,0.01,weatherlink.com 1.10,2013-07-01 13:11:00,
2013-07-01 09:26:00,69.1,67.0,29.97,WSW,247,0.0,1.0,93,0.00,,,0.01,weatherlink.com 1.10,2013-07-01 13:26:00,
2013-07-01 09:41:00,69.3,68.0,29.97,WSW,248,0.0,0.0,95,0.00,,,0.01,weatherlink.com 1.10,2013-07-01 13:41:00,
2013-07-01 09:56:00,69.4,68.0,29.97,SW,215,0.0,1.0,96,0.00,,,0.01,weatherlink.com 1.10,2013-07-01 13:56:00,
2013-07-01 10:11:00,69.7,68.0,29.98,WSW,248,0.0,2.0,93,0.00,,,0.01,weatherlink.com 1.10,2013-07-01 14:11:00,
2013-07-01 10:26:00,69.9,68.0,29.99,WSW,248,0.0,1.0,94,0.00,,,0.01,weatherlink.com 1.10,2013-07-01 14:26:00,
2013-07-01 10:41:00,69.8,68.0,29.99,WSW,248,0.0,0.0,95,0.00,,,0.01,weatherlink.com 1.10,2013-07-01 14:41:00,
2013-07-01 10:56:00,69.6,68.0,30.00,SSW,192,0.0,2.0,95,0.00,,,0.01,weatherlink.com 1.10,2013-07-01 14:56:00,
2013-07-01 11:11:00,70.1,68.0,30.00,SSW,192,0.0,1.0,94,0.00,,,0.01,weatherlink.com 1.10,2013-07-01 15:11:00,
2013-07-01 11:26:00,70.2,68.0,30.00,SW,214,1.0,1.0,93,0.00,,,0.01,weatherlink.com 1.10,2013-07-01 15:26:00,
2013-07-01 11:41:00,70.3,68.0,30.00,SSW,212,1.0,1.0,92,0.00,,,0.01,weatherlink.com 1.10,2013-07-01 15:41:00,
2013-07-01 11:56:00,70.7,69.0,30.01,SE,132,0.0,1.0,93,0.00,,,0.01,weatherlink.com 1.10,2013-07-01 15:56:00,
2013-07-01 12:11:00,70.5,68.0,30.01,SE,132,0.0,1.0,93,0.00,,,0.01,weatherlink.com 1.10,2013-07-01 16:11:00,
2013-07-01 12:26:00,70.8,69.0,30.01,SW,217,0.0,1.0,93,0.00,,,0.01,weatherlink.com 1.10,2013-07-01 16:26:00,
2013-07-01 12:41:00,70.9,69.0,30.00,SSE,157,0.0,1.0,92,0.00,,,0.01,weatherlink.com 1.10,2013-07-01 16:41:00,
2013-07-01 12:56:00,71.1,69.0,30.00,SSE,157,0.0,0.0,94,0.00,,,0.01,weatherlink.com 1.10,2013-07-01 16:56:00,
2013-07-01 13:11:00,70.6,69.0,29.99,South,186,0.0,1.0,93,0.00,,,0.01,weatherlink.com 1.10,2013-07-01 17:11:00,
2013-07-01 13:26:00,70.9,69.0,29.99,South,190,0.0,1.0,94,0.00,,,0.01,weatherlink.com 1.10,2013-07-01 17:26:00,
2013-07-01 13:41:00,71.7,69.0,29.98,NNW,343,0.0,2.0,90,0.00,,,0.01,weatherlink.com 1.10,2013-07-01 17:41:00,
2013-07-01 13:56:00,72.2,69.0,29.98,SE,144,0.0,2.0,89,0.00,,,0.01,weatherlink.com 1.10,2013-07-01 17:56:00,
2013-07-01 14:11:00,72.2,69.0,29.98,WSW,250,1.0,3.0,88,0.00,,,0.01,weatherlink.com 1.10,2013-07-01 18:11:00,
2013-07-01 14:26:00,72.3,69.0,29.99,East,91,1.0,3.0,89,0.00,,,0.01,weatherlink.com 1.10,2013-07-01 18:26:00,
2013-07-01 14:41:00,72.6,68.0,30.00,ESE,104,1.0,2.0,85,0.00,,,0.01,weatherlink.com 1.10,2013-07-01 18:41:00,
2013-07-01 14:56:00,73.3,69.0,30.00,ESE,104,0.0,2.0,86,0.00,,,0.01,weatherlink.com 1.10,2013-07-01 18:56:00,
2013-07-01 15:11:00,73.4,69.0,29.99,NNW,327,0.0,2.0,85,0.00,,,0.01,weatherlink.com 1.10,2013-07-01 19:11:00,
2013-07-01 15:26:00,73.5,69.0,29.99,SW,230,0.0,1.0,85,0.00,,,0.01,weatherlink.com 1.10,2013-07-01 19:26:00,
2013-07-01 15:42:00,73.8,69.0,29.99,WSW,252,0.0,2.0,84,0.00,,,0.01,weatherlink.com 1.10,2013-07-01 19:42:00,
2013-07-01 15:57:00,73.3,68.0,29.99,WSW,245,0.0,1.0,84,0.00,,,0.01,weatherlink.com 1.10,2013-07-01 19:57:00,
2013-07-01 16:12:00,73.0,68.0,29.99,WSW,245,0.0,1.0,85,0.00,,,0.01,weatherlink.com 1.10,2013-07-01 20:12:00,
2013-07-01 16:27:00,72.6,68.0,30.00,SSW,213,0.0,1.0,85,0.00,,,0.01,weatherlink.com 1.10,2013-07-01 20:27:00,
2013-07-01 16:42:00,71.9,67.0,30.00,West,269,0.0,1.0,85,0.00,,,0.01,weatherlink.com 1.10,2013-07-01 20:42:00,
2013-07-01 16:57:00,71.2,68.0,30.00,WSW,257,0.0,1.0,88,0.00,,,0.01,weatherlink.com 1.10,2013-07-01 20:57:00,
2013-07-01 17:12:00,70.9,67.0,30.00,NE,47,0.0,1.0,88,0.00,,,0.01,weatherlink.com 1.10,2013-07-01 21:12:00,
2013-07-01 17:27:00,70.3,67.0,30.00,SE,134,1.0,2.0,89,0.00,,,0.01,weatherlink.com 1.10,2013-07-01 21:27:00,
2013-07-01 17:42:00,70.1,67.0,30.00,SSW,200,0.0,2.0,90,0.00,,,0.01,weatherlink.com 1.10,2013-07-01 21:42:00,
2013-07-01 17:57:00,69.9,67.0,30.00,NNE,24,0.0,1.0,90,0.00,,,0.01,weatherlink.com 1.10,2013-07-01 21:57:00,
2013-07-01 18:12:00,69.5,67.0,30.01,South,180,0.0,1.0,91,0.00,,,0.01,weatherlink.com 1.10,2013-07-01 22:12:00,
2013-07-01 18:27:00,69.3,67.0,30.01,SSW,194,0.0,0.0,92,0.00,,,0.01,weatherlink.com 1.10,2013-07-01 22:27:00,
2013-07-01 18:42:00,69.0,67.0,30.01,SSW,194,1.0,1.0,94,0.00,,,0.01,weatherlink.com 1.10,2013-07-01 22:42:00,
2013-07-01 18:57:00,68.5,67.0,30.01,NW,311,0.0,2.0,94,0.00,,,0.01,weatherlink.com 1.10,2013-07-01 22:57:00,
2013-07-01 19:12:00,67.8,66.0,30.01,SE,132,1.0,3.0,95,0.00,,,0.01,weatherlink.com 1.10,2013-07-01 23:12:00,
2013-07-01 19:27:00,67.5,66.0,30.00,ESE,122,0.0,2.0,96,0.00,,,0.01,weatherlink.com 1.10,2013-07-01 23:27:00,
2013-07-01 19:42:00,67.3,67.0,30.01,West,260,0.0,1.0,97,0.01,,,0.02,weatherlink.com 1.10,2013-07-01 23:42:00,
2013-07-01 19:57:00,67.1,67.0,30.01,North,11,0.0,1.0,98,0.02,,,0.03,weatherlink.com 1.10,2013-07-01 23:57:00,
2013-07-01 20:12:00,66.9,66.0,30.01,West,269,0.0,1.0,98,0.02,,,0.03,weatherlink.com 1.10,2013-07-02 00:12:00,
2013-07-01 20:27:00,66.8,67.0,30.02,West,275,0.0,1.0,99,0.02,,,0.03,weatherlink.com 1.10,2013-07-02 00:27:00,
2013-07-01 20:42:00,66.6,66.0,30.02,West,275,0.0,1.0,99,0.01,,,0.03,weatherlink.com 1.10,2013-07-02 00:42:00,
2013-07-01 20:57:00,66.5,66.0,30.02,ESE,111,0.0,1.0,99,0.05,,,0.08,weatherlink.com 1.10,2013-07-02 00:57:00,
2013-07-01 21:12:00,66.4,66.0,30.03,NNW,346,0.0,2.0,99,0.05,,,0.08,weatherlink.com 1.10,2013-07-02 01:12:00,
2013-07-01 21:27:00,65.9,66.0,30.03,ESE,122,1.0,2.0,99,0.05,,,0.08,weatherlink.com 1.10,2013-07-02 01:27:00,
2013-07-01 21:42:00,65.5,65.0,30.04,NNW,338,0.0,1.0,99,0.06,,,0.09,weatherlink.com 1.10,2013-07-02 01:42:00,
2013-07-01 21:57:00,65.7,66.0,30.04,West,275,0.0,1.0,100,0.05,,,0.13,weatherlink.com 1.10,2013-07-02 01:57:00,
2013-07-01 22:12:00,65.8,66.0,30.04,WSW,248,0.0,1.0,100,0.15,,,0.23,weatherlink.com 1.10,2013-07-02 02:12:00,
2013-07-01 22:27:00,66.1,66.0,30.03,SW,215,0.0,7.0,100,0.20,,,0.28,weatherlink.com 1.10,2013-07-02 02:27:00,
2013-07-01 22:42:00,66.3,66.0,30.02,SSW,198,0.0,4.0,99,0.19,,,0.28,weatherlink.com 1.10,2013-07-02 02:42:00,
2013-07-01 22:57:00,66.4,66.0,30.02,ESE,123,1.0,3.0,99,0.27,,,0.40,weatherlink.com 1.10,2013-07-02 02:57:00,
2013-07-01 23:12:00,66.1,66.0,30.02,SSW,203,0.0,2.0,99,0.23,,,0.47,weatherlink.com 1.10,2013-07-02 03:12:00,
2013-07-01 23:27:00,66.2,66.0,30.03,SE,140,0.0,4.0,99,0.21,,,0.49,weatherlink.com 1.10,2013-07-02 03:27:00,
2013-07-01 23:42:00,66.0,66.0,30.02,SE,140,0.0,1.0,99,0.22,,,0.50,weatherlink.com 1.10,2013-07-02 03:42:00,
2013-07-01 23:57:00,65.8,66.0,30.02,SE,141,0.0,0.0,100,0.09,,,0.50,weatherlink.com 1.10,2013-07-02 03:57:00,